Preview of NWS' New Version of Forecast
This preview is not operational and should not be used for support decisions.

Regional Weather Roundup (RWR)

Issued by National Weather Service (NWS)

                            
000
ASUS45 KBOI 221410
RWRID 

IDAHO REGIONAL WEATHER ROUNDUP
NATIONAL WEATHER SERVICE BOISE ID
800 AM MDT SUN SEP 22 2019

NOTE: "FAIR" INDICATES FEW OR NO CLOUDS BELOW 12000 FEET
WITH NO SIGNIFICANT WEATHER AND/OR OBSTRUCTIONS TO VISIBILITY

IDZ012-014-221500-
SOUTHWEST IDAHO

  
CITY           SKY/WX    TMP DP  RH WIND       PRES   REMARKS
BOISE          CLEAR     52  40  63 SE8       30.04S                  
CALDWELL       CLEAR     45  40  82 CALM      30.05R                  
MOUNTAIN HOME  CLEAR     43  43 100 E14       30.06S                  
$$

IDZ016-017-221500-
SOUTHCENTRAL IDAHO

  
CITY           SKY/WX    TMP DP  RH WIND       PRES   REMARKS
BURLEY         CLEAR     43  35  73 CALM      30.11S                  
JEROME         CLEAR     44  36  73 E7        30.11S                  
TWIN FALLS     CLEAR     45  35  68 S9        30.11R                  
$$

IDZ019>023-221500-
SOUTHEAST IDAHO

  
CITY           SKY/WX    TMP DP  RH WIND       PRES   REMARKS
IDAHO FALLS    CLEAR     39  36  89 CALM      30.16R                  
POCATELLO      CLEAR     37  35  92 CALM      30.15S                  
REXBURG        CLEAR     42  37  82 CALM      30.16R                  
$$

IDZ006-010-011-018-031-032-221500-
CENTRAL IDAHO MOUNTAINS

  
CITY           SKY/WX    TMP DP  RH WIND       PRES   REMARKS
MCCALL         CLEAR     34  31  88 CALM      30.09S                  
HAILEY         CLEAR     37  34  87 W9        30.16F WCI  31          
STANLEY          N/A     29  25  85 CALM      30.18S                  
SALMON         CLEAR     41  39  93 SE5       30.11S                  
CHALLIS        CLEAR     39  34  82 CALM      30.14S                  
$$

IDZ002-004-006-007-026-221500-
NORTHERN IDAHO

  
CITY           SKY/WX    TMP DP  RH WIND       PRES   REMARKS
LEWISTON       CLEAR     54  47  77 E7        29.93F                  
LOWELL           N/A     49  48  97 CALM      30.04S                  
COEUR D'ALENE  CLEAR     40  38  93 NE5       29.96S                  
MULLAN PASS    CLEAR     42  38  85 S9        30.04S                  
$$